Location: Góry Miechowskie
(50.3599°N, 20.1803°E)
Time: 02:40:50
(UTC+00:00)

Vanguard 2 Rocket - Pass Details

Date: 16 September 2024
Orbit: 553 x 3298 km, 32.9° (Epoch: 14 October)

Event Time Altitude Azimuth Distance (km) Brightness Sun altitude
Exits shadow 22:43:53 14° 114° (ESE) 4,428 10.2 -37.4°
Drops below altitude 10° 22:46:34 10° 105° (ESE) 5,004 10.5 -37.4°
Sets 22:53:09 0° 91° (E) 6,541 11.3 -37.3°
